Weather in Volzhsk

Russia / Mari El Republic     55°51′44″N   48°22′19″E
temp.,
°C
wind,
m/s
gust,
m/s
humid.,
%
clouds,
%
prec.,
mm/h
press.,
hPa
HPBL,
m
8 august, mon
mon800:00+20ssw2255100 0.0 102011
03:00+18sse116195 0.0 102011
06:00+21s116594 0.0 102113
09:00+25sw115318 0.0 1020342
12:00+28sse214450 0.0 10201261
15:00+29se113717 0.0 10202365
18:00+26sse226010 0.0 101934
21:00+21wsw116998 0.0 102011
9 august, tue
tue900:00+20sw1169100 0.0 102011
03:00+18nnw11749 0.0 102011
06:00+21nnw007111 0.0 102038
09:00+25se1159100 0.0 1020361
12:00+27se0050100 0.0 1019993
15:00+28wsw114696 0.0 10181513
18:00+26ssw115855 0.0 101712
21:00+21sse11682 0.0 101811
10 august, wed
wed1000:00+17n379582 0.9 1018131
03:00+16sse119065 0.9 101711
06:00+18nw1286100 0.1 101883
09:00+22nnw227223 0.1 1018370
12:00+25n225812 0.0 1018842
15:00+26nnw2254100 0.0 10161288
18:00+17nne699770 11.9 1017230
21:00+17n3898100 16.0 1018284
11 august, thu
thu1100:00+16nnw4898100 0.0 1019286
03:00+14n3896100 0.0 1020241
06:00+13nnw4892100 0.0 1022303
09:00+17nnw576834 0.0 1023691
12:00+20nnw56542 0.0 10221443
15:00+22nnw46470 0.0 10221747
18:00+20nne236411 0.0 102352
21:00+15ssw11670 0.0 102311
12 august, fri
fri1200:00+14sw227212 0.0 102414
03:00+14wsw33779 0.0 102436
06:00+14wsw378299 0.0 1024190
09:00+20w5763100 0.0 1024584
12:00+22w575299 0.0 10231304
15:00+23w5752100 0.0 10221401
18:00+20w486623 0.0 1022206
21:00+17w34715 0.0 102255